Regional Weather Roundup
Issued by NWS

Home | Current Version | Previous Version | Text Only | Print | Product List | Glossary Off
Versions: 1 2 3 4 5 6 7 8 9 10 11 12 13 14 15 16 17 18 19 20 21 22 23 24 25 26 27 28 29 30 31 32 33 34 35 36 37 38 39 40 41 42 43 44 45 46 47 48 49 50

000
ASUS43 KLMK 140410
RWRKY
KENTUCKY REGIONAL WEATHER ROUNDUP
NATIONAL WEATHER SERVICE LOUISVILLE KY
1100 PM EST SAT FEB 13 2016

NOTE "FAIR" INDICATES FEW OR NO CLOUDS BELOW 12,000 FEET
WITH NO SIGNIFICANT WEATHER AND/OR OBSTRUCTIONS TO VISIBILITY.

KYZ001>023-026-027-061>063-070>075-140500-
WESTERN AND SOUTH CENTRAL KENTUCKY

CITY           SKY/WX    TMP DP  RH WIND       PRES   REMARKS
PADUCAH        CLOUDY    25   6  44 E8        30.44F WCI  16
HENDERSON      CLOUDY    23   3  42 E8        30.47F WCI  14
OWENSBORO      PTCLDY    23   3  42 E7        30.48F WCI  15
HOPKINSVILLE   CLOUDY    24   6  45 E9        30.42F WCI  15
BOWLING GREEN  CLOUDY    25   5  42 NE5       30.46F WCI  19
GLASGOW        MOCLDY    23   6  48 NE6       30.44F WCI  16
$$

KYZ024-025-028>034-038-045-046-053-140500-
NORTH CENTRAL KENTUCKY

CITY           SKY/WX    TMP DP  RH WIND       PRES   REMARKS
LOUISVILLE/SDF MOCLDY    21   2  43 E7        30.48F WCI  12
LOUISVILLE/LOU PTCLDY    20   3  48 NE6       30.49F WCI  12
FORT KNOX      MOCLDY    20   1  44 E7        30.44F WCI  11
$$

KYZ035>037-039>044-047>052-055>060-089>105-140500-
NORTHEAST KENTUCKY

CITY           SKY/WX    TMP DP  RH WIND       PRES   REMARKS
LEXINGTON      CLOUDY    15   2  56 E7        30.46F WCI   5
COVINGTON      PTCLDY    12   3  67 CALM      30.47F
FRANKFORT      CLOUDY    16   2  54 E5        30.47F WCI   9
$$

KYZ054-064>069-076>088-106>120-140500-
SOUTHEAST KENTUCKY

CITY           SKY/WX    TMP DP  RH WIND       PRES   REMARKS
JACKSON        CLEAR     13   2  61 CALM      30.43F
LONDON         CLOUDY    15   3  59 CALM      30.43F
SOMERSET       CLOUDY    16   9  73 CALM      30.46F
MIDDLESBORO    CLOUDY    17   8  67 CALM      30.44F
MONTICELLO     CLOUDY    17   8  67 W6        30.45F WCI   9
$$




USA.gov is the U.S. government's official web portal to all federal, state and local government web resources and services.